Location: Hoyos del Collado
(40.3594°N, 5.2003°W)
Time: 12:14:38
(UTC+00:00)

USA 234 - Pass Details

Date: 18 April 2024
Orbit: 1099 x 1109 km, 123.0° (Epoch: 26 May)

Event Time Altitude Azimuth Distance (km) Brightness Sun altitude
Exits shadow 19:58:42 13° 112° (ESE) 2,717 4.6 -10.7°
Maximum altitude 20:04:26 60° 36° (NE) 1,250 3.5 -11.7°
Drops below altitude 10° 20:10:50 10° 319° (NW) 2,961 6.7 -12.8°
Sets 20:13:21 0° 316° (NW) 3,920 7.7 -13.2°
